GFSSE_prec_precacc_015.txt.gz
Total_Precipitation_Accumulation
0.28 0.14 0.52 0.49 0.43 0.41 0.28 0.08 0.05 0.05 0.01 0.00 0.00 0.00 0.00 0.00 0.00 0.00 0.00 0.00 0.00 0.00 0.00 0.00 0.00 0.03 0.09 0.11 0.07 0.04 0.03 0.04 0.04 0.00 0.01 0.01 0.03 0.04 0.03 0.06 0.17 0.02 0.01
0.10 0.10 0.31 0.36 0.31 0.19 0.11 0.06 0.07 0.07 0.04 0.00 0.00 0.00 0.00 0.00 0.00 0.00 0.00 0.00 0.00 0.00 0.00 0.00 0.00 0.02 0.05 0.05 0.07 0.08 0.04 0.11 0.19 0.04 0.14 0.14 0.15 0.09 0.05 0.12 0.15 0.01 0.02
0.02 0.04 0.17 0.27 0.27 0.21 0.07 0.06 0.05 0.04 0.03 0.00 0.00 0.01 0.00 0.00 0.00 0.00 0.00 0.00 0.00 0.00 0.00 0.00 0.00 0.01 0.01 0.00 0.01 0.06 0.08 0.12 0.16 0.08 0.09 0.19 0.07 0.12 0.05 0.06 0.04 0.16 0.13
0.00 0.00 0.04 0.26 0.19 0.13 0.04 0.04 0.03 0.03 0.00 0.00 0.00 0.00 0.00 0.00 0.00 0.00 0.00 0.00 0.00 0.00 0.00 0.00 0.00 0.00 0.00 0.04 0.06 0.09 0.10 0.13 0.15 0.10 0.13 0.04 0.04 0.05 0.05 0.05 0.06 0.12 0.14
0.00 0.00 0.02 0.09 0.14 0.09 0.03 0.03 0.02 0.02 0.00 0.00 0.00 0.00 0.00 0.00 0.00 0.00 0.00 0.00 0.00 0.00 0.00 0.00 0.00 0.00 0.05 0.11 0.17 0.17 0.22 0.31 0.22 0.20 0.03 0.02 0.08 0.01 0.01 0.03 0.05 0.05 0.10
0.01 0.01 0.02 0.02 0.03 0.01 0.01 0.01 0.02 0.03 0.00 0.00 0.00 0.00 0.00 0.00 0.00 0.00 0.00 0.00 0.00 0.00 0.00 0.00 0.00 0.00 0.07 0.13 0.15 0.21 0.32 0.38 0.48 0.29 0.11 0.02 0.04 0.00 0.00 0.02 0.12 0.05 0.05
0.01 0.00 0.00 0.03 0.03 0.02 0.02 0.01 0.02 0.02 0.00 0.00 0.00 0.00 0.00 0.00 0.00 0.00 0.00 0.00 0.00 0.00 0.03 0.02 0.01 0.01 0.03 0.10 0.14 0.15 0.22 0.70 1.71 1.64 0.82 0.24 0.01 0.02 0.01 0.02 0.01 0.00 0.03
0.01 0.00 0.00 0.03 0.03 0.04 0.02 0.00 0.01 0.00 0.00 0.00 0.00 0.00 0.00 0.00 0.00 0.00 0.00 0.00 0.00 0.01 0.06 0.01 0.00 0.04 0.07 0.07 0.11 0.13 0.12 0.34 0.81 1.00 0.93 0.35 0.10 0.02 0.00 0.00 0.00 0.01 0.02
0.00 0.00 0.00 0.00 0.00 0.03 0.03 0.00 0.00 0.00 0.00 0.00 0.00 0.00 0.00 0.00 0.01 0.00 0.00 0.00 0.01 0.03 0.05 0.00 0.00 0.01 0.05 0.08 0.13 0.16 0.09 0.15 0.42 0.99 1.25 0.55 0.24 0.02 0.00 0.00 0.00 0.01 0.00
0.00 0.01 0.00 0.00 0.00 0.01 0.00 0.00 0.00 0.01 0.00 0.00 0.00 0.00 0.00 0.00 0.02 0.01 0.01 0.04 0.00 0.00 0.00 0.00 0.00 0.01 0.03 0.08 0.09 0.10 0.10 0.09 0.28 1.01 1.05 0.22 0.45 0.28 0.00 0.00 0.01 0.04 0.01
0.01 0.01 0.00 0.00 0.05 0.05 0.00 0.01 0.00 0.00 0.00 0.00 0.00 0.00 0.00 0.04 0.05 0.07 0.12 0.08 0.00 0.00 0.00 0.00 0.00 0.01 0.04 0.07 0.09 0.07 0.08 0.05 0.04 0.08 0.10 0.09 0.24 0.55 0.32 0.02 0.01 0.03 0.03
0.00 0.00 0.00 0.00 0.00 0.00 0.00 0.00 0.00 0.00 0.00 0.00 0.00 0.00 0.00 0.12 0.10 0.14 0.16 0.08 0.07 0.05 0.01 0.04 0.05 0.05 0.02 0.01 0.01 0.01 0.00 0.00 0.00 0.04 0.01 0.07 0.21 0.29 0.60 0.54 0.04 0.05 0.04
0.00 0.00 0.00 0.00 0.01 0.01 0.01 0.00 0.00 0.00 0.00 0.00 0.00 0.01 0.02 0.13 0.24 0.30 0.30 0.69 0.24 0.14 0.23 0.09 0.06 0.02 0.00 0.00 0.00 0.00 0.00 0.00 0.01 0.01 0.02 0.05 0.09 0.15 0.20 0.51 0.57 0.20 0.03
0.00 0.00 0.00 0.00 0.00 0.02 0.01 0.00 0.00 0.00 0.00 0.00 0.00 0.00 0.02 0.05 0.10 0.32 0.46 0.32 0.17 0.21 0.09 0.09 0.04 0.01 0.00 0.00 0.00 0.00 0.00 0.00 0.00 0.00 0.02 0.02 0.03 0.07 0.13 0.38 0.66 0.60 0.05
0.00 0.00 0.00 0.00 0.00 0.01 0.01 0.00 0.00 0.00 0.00 0.00 0.00 0.00 0.01 0.02 0.12 0.27 0.17 0.10 0.06 0.08 0.06 0.04 0.03 0.01 0.00 0.00 0.00 0.00 0.00 0.00 0.00 0.00 0.00 0.02 0.02 0.04 0.10 0.31 0.17 0.35 0.13
0.00 0.00 0.00 0.00 0.00 0.01 0.01 0.01 0.00 0.00 0.00 0.00 0.00 0.00 0.00 0.01 0.07 0.08 0.10 0.03 0.03 0.03 0.01 0.00 0.01 0.00 0.00 0.00 0.00 0.00 0.00 0.00 0.00 0.00 0.00 0.01 0.02 0.03 0.08 0.34 0.27 0.15 0.34
0.00 0.00 0.00 0.00 0.00 0.00 0.02 0.02 0.00 0.00 0.00 0.00 0.00 0.00 0.00 0.01 0.02 0.01 0.08 0.04 0.09 0.09 0.06 0.01 0.02 0.01 0.00 0.00 0.00 0.00 0.00 0.00 0.00 0.00 0.00 0.00 0.01 0.02 0.05 0.16 0.37 0.30 0.16
0.00 0.00 0.00 0.00 0.00 0.00 0.02 0.02 0.00 0.00 0.00 0.00 0.00 0.00 0.00 0.00 0.01 0.03 0.09 0.07 0.12 0.01 0.04 0.02 0.04 0.01 0.00 0.00 0.00 0.00 0.00 0.00 0.00 0.00 0.00 0.00 0.00 0.01 0.02 0.07 0.16 0.29 0.22
0.00 0.00 0.00 0.00 0.00 0.00 0.00 0.01 0.00 0.01 0.03 0.01 0.01 0.00 0.03 0.07 0.08 0.09 0.07 0.07 0.06 0.03 0.04 0.02 0.01 0.01 0.00 0.00 0.00 0.00 0.00 0.00 0.00 0.00 0.00 0.00 0.00 0.00 0.00 0.02 0.05 0.07 0.08
0.00 0.00 0.00 0.00 0.00 0.00 0.07 0.11 0.07 0.04 0.00 0.00 0.00 0.02 0.06 0.04 0.06 0.11 0.05 0.07 0.01 0.03 0.04 0.05 0.01 0.00 0.00 0.00 0.00 0.00 0.00 0.00 0.00 0.00 0.00 0.00 0.00 0.00 0.00 0.00 0.02 0.04 0.08
0.00 0.00 0.00 0.00 0.00 0.01 0.06 0.03 0.03 0.01 0.00 0.00 0.00 0.01 0.02 0.02 0.11 0.09 0.03 0.08 0.04 0.04 0.03 0.00 0.00 0.00 0.00 0.00 0.00 0.00 0.00 0.00 0.00 0.00 0.00 0.00 0.00 0.00 0.00 0.00 0.00 0.04 0.13
0.00 0.00 0.00 0.00 0.00 0.00 0.01 0.01 0.01 0.01 0.00 0.00 0.00 0.01 0.01 0.02 0.04 0.03 0.04 0.04 0.03 0.01 0.00 0.00 0.00 0.00 0.00 0.00 0.00 0.00 0.01 0.02 0.00 0.00 0.00 0.00 0.00 0.00 0.00 0.00 0.00 0.00 0.03
0.00 0.00 0.00 0.00 0.00 0.01 0.02 0.02 0.07 0.08 0.03 0.01 0.00 0.03 0.01 0.02 0.02 0.04 0.06 0.03 0.04 0.00 0.00 0.00 0.00 0.00 0.00 0.00 0.00 0.00 0.01 0.03 0.01 0.00 0.00 0.00 0.00 0.00 0.00 0.00 0.00 0.00 0.00
0.00 0.00 0.00 0.00 0.00 0.01 0.03 0.01 0.05 0.02 0.01 0.00 0.00 0.00 0.01 0.01 0.01 0.01 0.02 0.02 0.01 0.00 0.00 0.00 0.00 0.00 0.00 0.00 0.00 0.00 0.00 0.00 0.00 0.01 0.00 0.00 0.00 0.00 0.00 0.00 0.00 0.00 0.00
0.00 0.00 0.00 0.00 0.00 0.01 0.02 0.01 0.04 0.01 0.00 0.00 0.00 0.00 0.01 0.03 0.00 0.00 0.01 0.01 0.00 0.00 0.00 0.00 0.00 0.00 0.00 0.00 0.00 0.00 0.00 0.00 0.00 0.00 0.00 0.00 0.00 0.00 0.00 0.00 0.00 0.00 0.00
0.00 0.00 0.00 0.00 0.00 0.00 0.01 0.01 0.04 0.03 0.00 0.00 0.00 0.00 0.00 0.00 0.00 0.00 0.00 0.01 0.00 0.00 0.00 0.00 0.00 0.00 0.00 0.00 0.00 0.00 0.00 0.00 0.00 0.00 0.00 0.00 0.00 0.00 0.00 0.00 0.00 0.00 0.00

GFSSE_prec_precacc_021.txt.gz
Total_Precipitation_Accumulation
0.33 0.27 0.86 0.83 0.55 0.53 0.37 0.11 0.10 0.09 0.03 0.00 0.00 0.00 0.00 0.00 0.00 0.00 0.00 0.00 0.00 0.02 0.01 0.00 0.00 0.03 0.09 0.11 0.07 0.04 0.03 0.04 0.04 0.00 0.01 0.01 0.04 0.05 0.04 0.07 0.17 0.03 0.02
0.10 0.12 0.50 0.66 0.56 0.32 0.16 0.08 0.10 0.09 0.05 0.00 0.00 0.00 0.00 0.00 0.00 0.00 0.00 0.00 0.00 0.03 0.01 0.00 0.00 0.02 0.06 0.06 0.07 0.09 0.05 0.11 0.20 0.04 0.15 0.20 0.21 0.20 0.06 0.12 0.15 0.02 0.05
0.02 0.05 0.27 0.52 0.51 0.27 0.08 0.07 0.05 0.04 0.03 0.00 0.00 0.01 0.00 0.00 0.00 0.00 0.00 0.01 0.02 0.01 0.02 0.01 0.00 0.02 0.02 0.02 0.03 0.06 0.10 0.14 0.17 0.09 0.09 0.19 0.08 0.15 0.06 0.06 0.04 0.16 0.14
0.00 0.01 0.06 0.57 0.33 0.14 0.05 0.04 0.03 0.03 0.00 0.00 0.00 0.00 0.00 0.00 0.00 0.00 0.00 0.00 0.00 0.00 0.02 0.07 0.06 0.04 0.07 0.09 0.10 0.10 0.14 0.17 0.16 0.10 0.13 0.04 0.05 0.06 0.05 0.05 0.06 0.15 0.19
0.00 0.00 0.08 0.21 0.18 0.09 0.04 0.03 0.02 0.02 0.00 0.00 0.00 0.00 0.00 0.00 0.00 0.00 0.00 0.00 0.01 0.01 0.02 0.00 0.02 0.07 0.10 0.11 0.20 0.28 0.36 0.33 0.24 0.20 0.03 0.04 0.09 0.02 0.02 0.03 0.05 0.05 0.10
0.01 0.02 0.05 0.05 0.04 0.01 0.01 0.01 0.02 0.03 0.00 0.00 0.00 0.00 0.00 0.00 0.00 0.01 0.05 0.02 0.01 0.01 0.00 0.00 0.00 0.01 0.10 0.15 0.24 0.39 0.49 0.42 0.48 0.29 0.11 0.03 0.11 0.03 0.00 0.04 0.13 0.05 0.05
0.01 0.00 0.01 0.06 0.04 0.02 0.02 0.01 0.02 0.02 0.00 0.00 0.00 0.00 0.00 0.00 0.00 0.00 0.01 0.03 0.02 0.01 0.05 0.02 0.01 0.02 0.06 0.18 0.19 0.24 0.32 0.73 1.71 1.64 0.82 0.25 0.03 0.07 0.02 0.07 0.02 0.01 0.04
0.01 0.00 0.00 0.03 0.03 0.04 0.03 0.00 0.01 0.00 0.00 0.00 0.00 0.00 0.00 0.00 0.00 0.00 0.00 0.01 0.02 0.01 0.06 0.01 0.01 0.04 0.08 0.10 0.15 0.16 0.12 0.34 0.81 1.01 0.93 0.35 0.11 0.10 0.09 0.03 0.02 0.01 0.02
0.00 0.00 0.00 0.00 0.00 0.03 0.03 0.00 0.00 0.00 0.00 0.00 0.00 0.00 0.00 0.00 0.01 0.00 0.00 0.00 0.01 0.03 0.06 0.01 0.02 0.03 0.05 0.09 0.14 0.17 0.09 0.15 0.42 0.99 1.25 0.55 0.25 0.07 0.05 0.00 0.03 0.02 0.01
0.00 0.01 0.00 0.00 0.00 0.01 0.00 0.00 0.00 0.01 0.00 0.00 0.00 0.00 0.02 0.05 0.03 0.02 0.01 0.05 0.02 0.00 0.02 0.03 0.04 0.06 0.05 0.08 0.10 0.13 0.12 0.09 0.28 1.02 1.05 0.22 0.46 0.30 0.03 0.03 0.09 0.08 0.01
0.01 0.01 0.00 0.00 0.05 0.05 0.00 0.01 0.00 0.00 0.00 0.00 0.00 0.00 0.02 0.13 0.13 0.16 0.15 0.08 0.05 0.06 0.02 0.04 0.04 0.05 0.06 0.08 0.10 0.09 0.11 0.05 0.04 0.08 0.10 0.12 0.44 0.61 0.33 0.06 0.08 0.04 0.03
0.00 0.00 0.00 0.00 0.00 0.00 0.00 0.00 0.00 0.00 0.00 0.00 0.00 0.00 0.00 0.16 0.12 0.14 0.16 0.08 0.08 0.09 0.06 0.09 0.11 0.09 0.04 0.01 0.01 0.01 0.01 0.00 0.00 0.04 0.01 0.09 0.39 0.60 0.70 0.57 0.11 0.12 0.06
0.00 0.00 0.00 0.00 0.01 0.01 0.01 0.00 0.00 0.00 0.00 0.00 0.00 0.01 0.02 0.13 0.24 0.30 0.30 0.69 0.24 0.14 0.23 0.09 0.06 0.02 0.00 0.00 0.00 0.00 0.00 0.00 0.01 0.01 0.02 0.05 0.13 0.32 0.60 0.73 0.59 0.28 0.07
0.00 0.00 0.00 0.00 0.00 0.02 0.01 0.00 0.00 0.00 0.00 0.00 0.00 0.00 0.02 0.05 0.10 0.32 0.46 0.32 0.17 0.21 0.09 0.09 0.04 0.04 0.02 0.00 0.00 0.00 0.00 0.00 0.00 0.00 0.02 0.05 0.06 0.13 0.25 0.61 0.76 0.65 0.10
0.00 0.00 0.00 0.00 0.00 0.01 0.01 0.00 0.00 0.00 0.00 0.00 0.00 0.00 0.01 0.02 0.12 0.27 0.17 0.10 0.06 0.08 0.06 0.04 0.03 0.05 0.01 0.00 0.00 0.00 0.00 0.00 0.00 0.00 0.00 0.03 0.03 0.07 0.13 0.39 0.34 0.43 0.20
0.00 0.00 0.00 0.00 0.00 0.01 0.01 0.01 0.00 0.00 0.00 0.00 0.00 0.00 0.00 0.02 0.08 0.08 0.10 0.03 0.04 0.06 0.03 0.00 0.02 0.00 0.00 0.00 0.00 0.00 0.00 0.00 0.00 0.00 0.00 0.02 0.03 0.04 0.10 0.42 0.44 0.28 0.46
0.00 0.00 0.00 0.00 0.00 0.00 0.02 0.02 0.00 0.00 0.00 0.00 0.00 0.00 0.00 0.02 0.04 0.02 0.08 0.04 0.11 0.10 0.09 0.05 0.04 0.02 0.00 0.00 0.00 0.00 0.00 0.00 0.00 0.00 0.00 0.00 0.01 0.04 0.07 0.21 0.50 0.34 0.22
0.00 0.00 0.00 0.00 0.00 0.00 0.02 0.02 0.00 0.00 0.00 0.00 0.00 0.00 0.00 0.00 0.01 0.03 0.09 0.07 0.12 0.02 0.11 0.10 0.09 0.04 0.00 0.00 0.00 0.00 0.00 0.00 0.00 0.00 0.00 0.00 0.00 0.01 0.03 0.09 0.21 0.37 0.29
0.00 0.00 0.00 0.00 0.00 0.00 0.00 0.01 0.00 0.01 0.03 0.01 0.01 0.00 0.03 0.07 0.11 0.24 0.11 0.07 0.06 0.03 0.07 0.06 0.02 0.01 0.00 0.00 0.00 0.00 0.00 0.00 0.00 0.00 0.00 0.00 0.00 0.00 0.00 0.02 0.06 0.10 0.13
0.00 0.00 0.00 0.00 0.00 0.00 0.07 0.11 0.07 0.04 0.00 0.00 0.00 0.03 0.07 0.04 0.12 0.13 0.06 0.08 0.03 0.03 0.04 0.06 0.02 0.00 0.00 0.00 0.00 0.00 0.00 0.00 0.00 0.00 0.00 0.00 0.00 0.00 0.00 0.01 0.02 0.04 0.10
0.00 0.00 0.00 0.00 0.00 0.01 0.06 0.03 0.03 0.01 0.00 0.00 0.00 0.01 0.02 0.02 0.11 0.09 0.03 0.10 0.07 0.04 0.04 0.01 0.00 0.00 0.00 0.00 0.00 0.00 0.00 0.00 0.00 0.00 0.00 0.00 0.00 0.00 0.00 0.00 0.01 0.04 0.14
0.00 0.00 0.00 0.00 0.00 0.00 0.01 0.01 0.01 0.01 0.00 0.00 0.00 0.01 0.01 0.02 0.04 0.03 0.04 0.05 0.04 0.01 0.00 0.00 0.00 0.00 0.00 0.00 0.00 0.00 0.01 0.02 0.00 0.00 0.00 0.00 0.00 0.00 0.00 0.00 0.00 0.00 0.03
0.00 0.00 0.00 0.00 0.00 0.01 0.02 0.02 0.07 0.08 0.03 0.01 0.00 0.03 0.01 0.02 0.02 0.04 0.06 0.03 0.04 0.00 0.00 0.00 0.00 0.00 0.00 0.00 0.00 0.00 0.01 0.03 0.01 0.00 0.00 0.00 0.00 0.00 0.00 0.00 0.00 0.00 0.00
0.00 0.00 0.00 0.00 0.00 0.01 0.03 0.01 0.05 0.02 0.01 0.00 0.00 0.00 0.01 0.01 0.01 0.01 0.02 0.02 0.01 0.00 0.00 0.00 0.00 0.00 0.00 0.00 0.00 0.00 0.00 0.00 0.00 0.01 0.00 0.00 0.00 0.00 0.00 0.00 0.00 0.00 0.00
0.00 0.00 0.00 0.00 0.00 0.01 0.02 0.01 0.04 0.01 0.00 0.00 0.00 0.00 0.01 0.03 0.00 0.00 0.01 0.01 0.00 0.00 0.00 0.00 0.00 0.00 0.00 0.00 0.00 0.00 0.00 0.00 0.00 0.00 0.00 0.00 0.00 0.00 0.00 0.00 0.00 0.00 0.00
0.00 0.00 0.00 0.00 0.00 0.00 0.01 0.01 0.04 0.03 0.00 0.00 0.00 0.00 0.00 0.00 0.00 0.00 0.00 0.01 0.00 0.00 0.00 0.00 0.00 0.00 0.00 0.00 0.00 0.00 0.00 0.00 0.00 0.00 0.00 0.00 0.00 0.00 0.00 0.00 0.00 0.00 0.00

GFSSE_prec_precacc_027.txt.gz
Total_Precipitation_Accumulation
0.61 0.51 1.01 0.94 0.57 0.54 0.37 0.11 0.10 0.10 0.04 0.01 0.00 0.00 0.00 0.00 0.00 0.00 0.02 0.07 0.10 0.12 0.04 0.02 0.02 0.03 0.09 0.11 0.07 0.04 0.03 0.04 0.04 0.01 0.01 0.01 0.04 0.06 0.04 0.07 0.23 0.04 0.04
0.59 0.24 0.71 0.73 0.57 0.33 0.16 0.08 0.10 0.10 0.05 0.00 0.00 0.00 0.00 0.00 0.01 0.00 0.01 0.05 0.05 0.12 0.07 0.01 0.00 0.02 0.06 0.07 0.08 0.09 0.05 0.11 0.20 0.07 0.24 0.25 0.24 0.20 0.06 0.13 0.24 0.03 0.07
0.24 0.07 0.32 0.56 0.55 0.28 0.09 0.08 0.05 0.04 0.03 0.01 0.00 0.01 0.01 0.03 0.02 0.06 0.07 0.05 0.03 0.02 0.03 0.03 0.01 0.02 0.02 0.05 0.13 0.14 0.13 0.14 0.17 0.11 0.16 0.22 0.09 0.15 0.06 0.11 0.09 0.17 0.16
0.01 0.02 0.07 0.64 0.38 0.16 0.05 0.05 0.03 0.03 0.00 0.00 0.00 0.00 0.02 0.04 0.05 0.01 0.01 0.02 0.01 0.01 0.02 0.07 0.06 0.04 0.07 0.09 0.13 0.14 0.19 0.17 0.16 0.10 0.20 0.06 0.05 0.06 0.07 0.07 0.07 0.16 0.20
0.01 0.01 0.08 0.24 0.20 0.10 0.04 0.03 0.02 0.02 0.00 0.00 0.00 0.01 0.03 0.02 0.03 0.02 0.02 0.04 0.05 0.02 0.02 0.00 0.02 0.07 0.10 0.11 0.26 0.31 0.38 0.36 0.24 0.21 0.09 0.10 0.11 0.03 0.09 0.15 0.12 0.08 0.11
0.02 0.02 0.06 0.06 0.04 0.02 0.01 0.01 0.02 0.03 0.00 0.00 0.00 0.02 0.02 0.01 0.01 0.02 0.07 0.08 0.07 0.02 0.00 0.00 0.00 0.01 0.10 0.15 0.25 0.39 0.50 0.45 0.49 0.29 0.12 0.06 0.25 0.04 0.05 0.14 0.16 0.07 0.05
0.02 0.01 0.01 0.09 0.05 0.02 0.02 0.01 0.02 0.02 0.00 0.00 0.00 0.00 0.00 0.01 0.02 0.06 0.06 0.05 0.06 0.02 0.05 0.02 0.01 0.02 0.06 0.19 0.21 0.24 0.32 0.74 1.72 1.65 0.83 0.28 0.08 0.08 0.06 0.16 0.07 0.03 0.10
0.01 0.00 0.00 0.04 0.03 0.06 0.05 0.00 0.01 0.00 0.00 0.00 0.00 0.00 0.00 0.00 0.01 0.02 0.01 0.01 0.02 0.01 0.06 0.01 0.01 0.04 0.08 0.11 0.16 0.16 0.12 0.38 0.86 1.01 0.93 0.41 0.12 0.14 0.14 0.07 0.07 0.04 0.06
0.01 0.00 0.00 0.00 0.00 0.06 0.06 0.00 0.00 0.00 0.00 0.00 0.00 0.00 0.00 0.00 0.01 0.00 0.00 0.00 0.01 0.03 0.06 0.01 0.02 0.03 0.06 0.12 0.18 0.17 0.09 0.27 0.56 1.07 1.25 0.55 0.29 0.15 0.08 0.01 0.03 0.03 0.02
0.00 0.01 0.00 0.00 0.00 0.01 0.01 0.00 0.00 0.01 0.00 0.00 0.00 0.00 0.02 0.05 0.03 0.02 0.02 0.05 0.03 0.01 0.02 0.03 0.04 0.06 0.05 0.09 0.13 0.15 0.12 0.10 0.31 1.06 1.05 0.23 0.49 0.42 0.06 0.04 0.10 0.09 0.01
0.01 0.01 0.00 0.00 0.05 0.05 0.00 0.01 0.00 0.00 0.00 0.00 0.00 0.00 0.03 0.18 0.16 0.25 0.16 0.08 0.06 0.06 0.02 0.04 0.04 0.05 0.06 0.08 0.10 0.10 0.12 0.05 0.04 0.09 0.10 0.13 0.45 0.64 0.36 0.08 0.08 0.04 0.03
0.00 0.00 0.00 0.00 0.00 0.00 0.00 0.00 0.00 0.00 0.00 0.00 0.00 0.00 0.12 0.16 0.14 0.18 0.16 0.08 0.08 0.09 0.06 0.10 0.11 0.09 0.06 0.04 0.01 0.01 0.01 0.00 0.00 0.04 0.01 0.09 0.39 0.63 0.74 0.60 0.16 0.14 0.06
0.00 0.00 0.00 0.00 0.01 0.01 0.01 0.00 0.00 0.00 0.00 0.00 0.00 0.01 0.04 0.14 0.27 0.34 0.30 0.70 0.24 0.14 0.25 0.11 0.09 0.02 0.00 0.00 0.00 0.00 0.00 0.00 0.01 0.01 0.02 0.05 0.13 0.36 0.62 0.75 0.61 0.29 0.08
0.00 0.00 0.00 0.00 0.00 0.02 0.01 0.00 0.00 0.00 0.00 0.00 0.00 0.00 0.02 0.08 0.11 0.33 0.46 0.32 0.17 0.21 0.10 0.11 0.05 0.06 0.05 0.00 0.00 0.00 0.00 0.00 0.00 0.00 0.02 0.05 0.06 0.13 0.25 0.62 0.77 0.65 0.10
0.00 0.00 0.00 0.00 0.00 0.01 0.01 0.00 0.00 0.00 0.00 0.00 0.00 0.00 0.01 0.03 0.14 0.28 0.17 0.10 0.06 0.09 0.14 0.08 0.10 0.09 0.02 0.01 0.00 0.00 0.00 0.00 0.00 0.00 0.00 0.03 0.03 0.07 0.13 0.40 0.36 0.43 0.20
0.00 0.00 0.00 0.00 0.00 0.01 0.01 0.01 0.00 0.00 0.00 0.00 0.00 0.00 0.00 0.02 0.08 0.09 0.10 0.03 0.05 0.08 0.13 0.09 0.09 0.09 0.00 0.00 0.00 0.00 0.00 0.00 0.00 0.00 0.00 0.02 0.03 0.04 0.10 0.42 0.45 0.32 0.48
0.00 0.00 0.00 0.00 0.00 0.00 0.02 0.02 0.00 0.00 0.00 0.00 0.00 0.00 0.00 0.02 0.05 0.05 0.09 0.04 0.11 0.19 0.18 0.11 0.08 0.20 0.02 0.00 0.00 0.00 0.00 0.00 0.00 0.00 0.00 0.00 0.01 0.04 0.07 0.21 0.50 0.38 0.26
0.00 0.00 0.00 0.00 0.00 0.00 0.02 0.02 0.00 0.00 0.00 0.00 0.00 0.00 0.00 0.00 0.01 0.04 0.20 0.14 0.16 0.13 0.16 0.13 0.12 0.07 0.00 0.00 0.00 0.00 0.00 0.00 0.00 0.00 0.00 0.00 0.00 0.01 0.03 0.09 0.21 0.41 0.30
0.00 0.00 0.00 0.00 0.00 0.00 0.00 0.01 0.00 0.01 0.03 0.01 0.01 0.00 0.03 0.07 0.11 0.25 0.22 0.19 0.11 0.10 0.12 0.10 0.08 0.03 0.00 0.00 0.00 0.00 0.00 0.00 0.00 0.00 0.00 0.00 0.00 0.00 0.00 0.02 0.06 0.10 0.14
0.00 0.00 0.00 0.00 0.00 0.00 0.07 0.11 0.07 0.04 0.00 0.00 0.00 0.03 0.07 0.04 0.12 0.13 0.12 0.22 0.07 0.08 0.10 0.14 0.07 0.00 0.00 0.00 0.00 0.00 0.00 0.00 0.00 0.00 0.00 0.00 0.00 0.00 0.00 0.01 0.02 0.04 0.10
0.00 0.00 0.00 0.00 0.00 0.02 0.06 0.03 0.03 0.01 0.00 0.00 0.00 0.01 0.02 0.02 0.11 0.10 0.13 0.25 0.09 0.09 0.13 0.09 0.04 0.00 0.00 0.00 0.00 0.00 0.00 0.00 0.00 0.00 0.00 0.00 0.00 0.00 0.00 0.00 0.01 0.05 0.15
0.00 0.00 0.00 0.00 0.00 0.00 0.01 0.01 0.01 0.01 0.00 0.00 0.00 0.01 0.01 0.02 0.04 0.10 0.26 0.15 0.05 0.09 0.11 0.07 0.05 0.01 0.00 0.00 0.00 0.00 0.01 0.02 0.00 0.00 0.00 0.00 0.00 0.00 0.00 0.00 0.00 0.00 0.03
0.00 0.00 0.00 0.00 0.00 0.01 0.02 0.02 0.07 0.08 0.03 0.01 0.00 0.03 0.01 0.02 0.02 0.08 0.20 0.10 0.12 0.06 0.18 0.11 0.04 0.02 0.01 0.00 0.00 0.00 0.01 0.03 0.01 0.00 0.00 0.00 0.00 0.00 0.00 0.00 0.00 0.00 0.00
0.00 0.00 0.00 0.00 0.00 0.01 0.03 0.01 0.05 0.02 0.01 0.00 0.00 0.00 0.01 0.01 0.01 0.02 0.08 0.08 0.04 0.01 0.13 0.13 0.01 0.00 0.00 0.00 0.00 0.00 0.00 0.00 0.00 0.01 0.00 0.00 0.00 0.00 0.00 0.00 0.00 0.00 0.00
0.00 0.00 0.00 0.00 0.00 0.01 0.02 0.01 0.04 0.01 0.00 0.00 0.00 0.00 0.01 0.03 0.00 0.00 0.02 0.12 0.02 0.02 0.03 0.08 0.03 0.00 0.00 0.00 0.00 0.00 0.00 0.00 0.00 0.00 0.00 0.00 0.00 0.00 0.00 0.00 0.00 0.00 0.00
0.00 0.00 0.00 0.00 0.00 0.00 0.01 0.01 0.04 0.03 0.00 0.00 0.00 0.00 0.00 0.00 0.00 0.00 0.01 0.03 0.02 0.00 0.00 0.03 0.01 0.00 0.00 0.00 0.00 0.00 0.00 0.00 0.00 0.00 0.00 0.00 0.00 0.00 0.00 0.00 0.00 0.00 0.00

GFSSE_prec_precacc_030.txt.gz
Total_Precipitation_Accumulation
0.61 0.51 1.02 0.94 0.58 0.54 0.37 0.11 0.10 0.11 0.04 0.01 0.00 0.00 0.00 0.00 0.00 0.01 0.03 0.07 0.10 0.13 0.06 0.02 0.02 0.03 0.09 0.11 0.07 0.04 0.03 0.04 0.04 0.01 0.01 0.01 0.04 0.06 0.04 0.08 0.26 0.05 0.04
0.59 0.24 0.72 0.74 0.57 0.33 0.16 0.09 0.11 0.10 0.05 0.00 0.00 0.01 0.01 0.01 0.01 0.01 0.01 0.05 0.06 0.13 0.07 0.01 0.00 0.02 0.06 0.07 0.08 0.09 0.05 0.11 0.20 0.08 0.26 0.25 0.24 0.20 0.07 0.17 0.37 0.04 0.08
0.24 0.08 0.32 0.56 0.55 0.28 0.09 0.08 0.06 0.04 0.03 0.01 0.01 0.04 0.02 0.04 0.02 0.06 0.07 0.05 0.03 0.03 0.04 0.03 0.01 0.02 0.02 0.05 0.13 0.14 0.13 0.14 0.18 0.17 0.28 0.25 0.09 0.15 0.07 0.21 0.15 0.17 0.22
0.01 0.02 0.07 0.65 0.40 0.16 0.06 0.06 0.03 0.03 0.00 0.00 0.01 0.04 0.04 0.05 0.05 0.01 0.01 0.02 0.01 0.01 0.02 0.07 0.06 0.04 0.07 0.09 0.13 0.14 0.19 0.18 0.16 0.17 0.27 0.07 0.05 0.06 0.09 0.12 0.12 0.24 0.22
0.01 0.01 0.08 0.24 0.22 0.10 0.05 0.03 0.02 0.02 0.00 0.00 0.01 0.01 0.03 0.02 0.03 0.02 0.02 0.04 0.05 0.02 0.02 0.00 0.02 0.07 0.10 0.11 0.26 0.31 0.38 0.37 0.26 0.30 0.14 0.11 0.11 0.03 0.09 0.15 0.13 0.09 0.15
0.02 0.02 0.06 0.07 0.04 0.02 0.02 0.01 0.02 0.03 0.00 0.00 0.00 0.02 0.02 0.01 0.01 0.02 0.07 0.08 0.07 0.02 0.00 0.00 0.00 0.01 0.10 0.15 0.25 0.39 0.50 0.48 0.59 0.40 0.15 0.06 0.25 0.04 0.05 0.15 0.20 0.07 0.05
0.02 0.01 0.01 0.11 0.06 0.03 0.02 0.01 0.02 0.02 0.01 0.00 0.00 0.00 0.00 0.01 0.02 0.06 0.06 0.05 0.06 0.02 0.05 0.02 0.01 0.02 0.06 0.19 0.21 0.24 0.32 0.74 1.76 1.67 0.86 0.28 0.08 0.08 0.06 0.16 0.07 0.03 0.12
0.02 0.00 0.00 0.05 0.04 0.06 0.05 0.00 0.01 0.00 0.00 0.00 0.00 0.00 0.00 0.00 0.01 0.02 0.01 0.01 0.02 0.01 0.06 0.01 0.01 0.04 0.08 0.11 0.16 0.16 0.12 0.39 0.86 1.01 0.94 0.41 0.12 0.14 0.14 0.07 0.07 0.04 0.06
0.01 0.00 0.00 0.00 0.01 0.06 0.06 0.00 0.00 0.00 0.00 0.00 0.00 0.00 0.00 0.00 0.01 0.00 0.00 0.00 0.01 0.03 0.06 0.01 0.02 0.03 0.06 0.12 0.18 0.17 0.09 0.31 0.58 1.07 1.25 0.55 0.29 0.15 0.08 0.02 0.03 0.03 0.02
0.00 0.01 0.00 0.00 0.00 0.01 0.01 0.00 0.00 0.01 0.00 0.00 0.00 0.00 0.02 0.07 0.04 0.03 0.02 0.05 0.03 0.01 0.02 0.03 0.04 0.06 0.05 0.09 0.13 0.15 0.12 0.15 0.46 1.09 1.05 0.23 0.49 0.42 0.06 0.04 0.10 0.09 0.01
0.01 0.01 0.00 0.00 0.05 0.05 0.00 0.01 0.00 0.00 0.00 0.00 0.00 0.02 0.22 0.30 0.33 0.35 0.16 0.08 0.06 0.06 0.02 0.04 0.04 0.05 0.07 0.08 0.10 0.10 0.12 0.08 0.08 0.11 0.11 0.13 0.45 0.64 0.36 0.08 0.08 0.04 0.04
0.00 0.00 0.00 0.00 0.00 0.00 0.00 0.00 0.00 0.00 0.00 0.00 0.00 0.18 0.71 0.28 0.20 0.23 0.16 0.08 0.08 0.09 0.06 0.10 0.11 0.09 0.10 0.05 0.01 0.01 0.01 0.00 0.00 0.04 0.01 0.09 0.39 0.63 0.74 0.60 0.16 0.14 0.06
0.00 0.00 0.00 0.00 0.01 0.01 0.01 0.00 0.00 0.00 0.00 0.00 0.01 0.21 0.66 0.31 0.30 0.35 0.30 0.70 0.24 0.16 0.25 0.15 0.10 0.02 0.00 0.00 0.00 0.00 0.00 0.00 0.01 0.01 0.02 0.05 0.13 0.36 0.62 0.75 0.61 0.29 0.08
0.00 0.00 0.00 0.00 0.00 0.02 0.01 0.00 0.00 0.00 0.00 0.00 0.00 0.01 0.11 0.26 0.18 0.33 0.47 0.32 0.19 0.24 0.17 0.12 0.06 0.06 0.05 0.00 0.00 0.00 0.00 0.00 0.00 0.00 0.02 0.05 0.06 0.13 0.25 0.62 0.77 0.65 0.10
0.00 0.00 0.00 0.00 0.00 0.01 0.01 0.00 0.00 0.00 0.00 0.00 0.00 0.00 0.07 0.16 0.16 0.28 0.17 0.11 0.08 0.22 0.77 0.12 0.11 0.09 0.03 0.02 0.00 0.00 0.00 0.00 0.00 0.00 0.00 0.03 0.03 0.07 0.13 0.40 0.36 0.43 0.20
0.00 0.00 0.00 0.00 0.00 0.01 0.01 0.01 0.00 0.00 0.00 0.00 0.00 0.00 0.00 0.06 0.11 0.09 0.11 0.03 0.06 0.10 0.22 0.13 0.10 0.23 0.01 0.00 0.00 0.00 0.00 0.00 0.00 0.00 0.00 0.02 0.03 0.04 0.10 0.42 0.45 0.32 0.48
0.00 0.00 0.00 0.00 0.00 0.00 0.02 0.02 0.00 0.00 0.00 0.00 0.00 0.00 0.00 0.02 0.05 0.05 0.10 0.06 0.14 0.20 0.18 0.12 0.10 0.27 0.02 0.00 0.00 0.00 0.00 0.00 0.00 0.00 0.00 0.00 0.01 0.04 0.07 0.21 0.50 0.39 0.27
0.00 0.00 0.00 0.00 0.00 0.00 0.02 0.02 0.00 0.00 0.00 0.00 0.00 0.00 0.00 0.00 0.01 0.04 0.21 0.16 0.21 0.14 0.16 0.13 0.12 0.07 0.00 0.00 0.00 0.00 0.00 0.00 0.00 0.00 0.00 0.00 0.00 0.01 0.03 0.09 0.22 0.42 0.33
0.00 0.00 0.00 0.00 0.00 0.00 0.00 0.01 0.00 0.01 0.03 0.01 0.01 0.00 0.03 0.07 0.11 0.25 0.22 0.19 0.13 0.17 0.13 0.10 0.08 0.03 0.00 0.00 0.00 0.00 0.00 0.00 0.00 0.00 0.00 0.00 0.00 0.00 0.00 0.02 0.07 0.12 0.16
0.00 0.00 0.00 0.00 0.00 0.00 0.07 0.11 0.07 0.04 0.00 0.00 0.00 0.03 0.07 0.04 0.12 0.13 0.14 0.25 0.09 0.10 0.10 0.14 0.07 0.00 0.00 0.00 0.00 0.00 0.00 0.00 0.00 0.00 0.00 0.00 0.00 0.00 0.00 0.01 0.02 0.05 0.10
0.00 0.00 0.00 0.00 0.01 0.02 0.07 0.03 0.03 0.01 0.00 0.00 0.00 0.01 0.02 0.02 0.11 0.13 0.19 0.29 0.13 0.12 0.14 0.09 0.04 0.00 0.00 0.00 0.00 0.00 0.00 0.00 0.00 0.00 0.00 0.00 0.00 0.00 0.00 0.00 0.01 0.05 0.15
0.00 0.00 0.00 0.00 0.00 0.00 0.01 0.01 0.01 0.01 0.00 0.00 0.00 0.01 0.01 0.02 0.05 0.14 0.30 0.17 0.09 0.12 0.13 0.07 0.06 0.04 0.00 0.00 0.00 0.00 0.01 0.02 0.00 0.00 0.00 0.00 0.00 0.00 0.00 0.00 0.00 0.00 0.04
0.00 0.00 0.00 0.00 0.00 0.01 0.02 0.02 0.07 0.08 0.03 0.01 0.00 0.03 0.01 0.02 0.02 0.14 0.24 0.11 0.18 0.11 0.23 0.14 0.04 0.02 0.01 0.00 0.00 0.00 0.01 0.03 0.01 0.00 0.00 0.00 0.00 0.00 0.00 0.00 0.00 0.00 0.00
0.00 0.00 0.00 0.00 0.00 0.01 0.03 0.01 0.05 0.02 0.01 0.00 0.00 0.00 0.01 0.01 0.01 0.03 0.08 0.09 0.06 0.04 0.15 0.16 0.02 0.01 0.00 0.00 0.00 0.00 0.00 0.01 0.01 0.01 0.00 0.00 0.00 0.00 0.00 0.00 0.00 0.00 0.00
0.00 0.00 0.00 0.00 0.00 0.01 0.02 0.01 0.04 0.01 0.00 0.00 0.00 0.00 0.01 0.03 0.00 0.00 0.02 0.12 0.03 0.03 0.06 0.11 0.03 0.00 0.00 0.00 0.00 0.00 0.00 0.00 0.00 0.00 0.00 0.00 0.00 0.00 0.00 0.00 0.00 0.00 0.00
0.00 0.00 0.00 0.00 0.00 0.00 0.01 0.01 0.04 0.03 0.00 0.00 0.00 0.00 0.00 0.00 0.00 0.00 0.02 0.04 0.04 0.01 0.03 0.07 0.03 0.00 0.00 0.00 0.00 0.00 0.00 0.00 0.00 0.00 0.00 0.00 0.00 0.00 0.00 0.00 0.00 0.00 0.00

GFSSE_prec_precacc_033.txt.gz
Total_Precipitation_Accumulation
0.61 0.51 1.03 0.96 0.59 0.54 0.37 0.11 0.10 0.11 0.05 0.01 0.00 0.00 0.00 0.00 0.01 0.02 0.04 0.10 0.11 0.13 0.06 0.02 0.02 0.03 0.09 0.11 0.07 0.04 0.03 0.04 0.04 0.01 0.01 0.01 0.04 0.06 0.04 0.09 0.29 0.06 0.06
0.59 0.24 0.73 0.76 0.57 0.35 0.17 0.09 0.11 0.10 0.06 0.00 0.01 0.01 0.01 0.01 0.01 0.01 0.03 0.05 0.06 0.13 0.07 0.01 0.00 0.02 0.06 0.07 0.08 0.09 0.05 0.11 0.20 0.08 0.26 0.25 0.24 0.20 0.08 0.21 0.42 0.04 0.09
0.24 0.08 0.32 0.56 0.55 0.31 0.12 0.10 0.06 0.04 0.03 0.01 0.01 0.04 0.02 0.04 0.03 0.07 0.08 0.05 0.03 0.03 0.04 0.03 0.01 0.02 0.02 0.05 0.13 0.14 0.13 0.15 0.20 0.19 0.29 0.25 0.09 0.15 0.11 0.31 0.17 0.18 0.24
0.01 0.02 0.07 0.65 0.40 0.19 0.09 0.07 0.03 0.03 0.00 0.00 0.01 0.04 0.04 0.05 0.06 0.01 0.01 0.02 0.01 0.01 0.02 0.07 0.06 0.04 0.07 0.09 0.13 0.14 0.21 0.19 0.22 0.27 0.27 0.07 0.05 0.09 0.15 0.15 0.16 0.30 0.22
0.01 0.01 0.08 0.24 0.23 0.14 0.08 0.04 0.02 0.02 0.00 0.00 0.01 0.01 0.03 0.02 0.03 0.02 0.02 0.04 0.05 0.02 0.02 0.00 0.02 0.07 0.10 0.11 0.26 0.31 0.42 0.41 0.27 0.34 0.15 0.11 0.11 0.04 0.09 0.18 0.17 0.12 0.16
0.02 0.02 0.06 0.07 0.05 0.05 0.03 0.01 0.02 0.03 0.00 0.00 0.00 0.02 0.02 0.01 0.01 0.02 0.07 0.08 0.07 0.02 0.00 0.00 0.00 0.01 0.10 0.15 0.25 0.39 0.51 0.56 0.65 0.46 0.17 0.07 0.25 0.04 0.07 0.16 0.20 0.07 0.05
0.03 0.01 0.01 0.11 0.08 0.04 0.03 0.01 0.02 0.02 0.01 0.00 0.00 0.00 0.00 0.01 0.02 0.06 0.06 0.05 0.06 0.02 0.05 0.02 0.01 0.02 0.06 0.19 0.21 0.24 0.34 0.80 1.79 1.79 0.89 0.29 0.08 0.08 0.06 0.16 0.07 0.03 0.12
0.02 0.00 0.00 0.05 0.05 0.06 0.05 0.00 0.01 0.00 0.00 0.00 0.00 0.00 0.00 0.00 0.01 0.02 0.01 0.01 0.02 0.01 0.06 0.01 0.01 0.04 0.08 0.11 0.16 0.16 0.14 0.40 0.88 1.02 0.95 0.41 0.12 0.14 0.14 0.07 0.07 0.04 0.06
0.01 0.00 0.00 0.00 0.01 0.06 0.06 0.00 0.00 0.00 0.00 0.00 0.00 0.00 0.00 0.00 0.01 0.00 0.00 0.00 0.01 0.03 0.06 0.01 0.02 0.03 0.06 0.12 0.18 0.17 0.09 0.31 0.58 1.07 1.25 0.55 0.29 0.15 0.08 0.02 0.04 0.03 0.03
0.00 0.01 0.00 0.00 0.00 0.01 0.01 0.00 0.00 0.01 0.00 0.00 0.00 0.01 0.04 0.07 0.04 0.03 0.03 0.05 0.03 0.01 0.02 0.03 0.04 0.06 0.05 0.09 0.13 0.15 0.12 0.15 0.47 1.10 1.05 0.23 0.49 0.42 0.06 0.04 0.10 0.09 0.02
0.01 0.01 0.00 0.00 0.05 0.05 0.00 0.01 0.00 0.00 0.00 0.00 0.01 0.06 0.31 0.34 0.35 0.38 0.17 0.08 0.06 0.06 0.02 0.04 0.04 0.05 0.07 0.08 0.10 0.10 0.12 0.08 0.09 0.12 0.11 0.13 0.45 0.64 0.36 0.08 0.08 0.04 0.04
0.00 0.00 0.00 0.00 0.00 0.00 0.00 0.00 0.00 0.00 0.00 0.00 0.01 0.19 0.80 0.32 0.21 0.25 0.16 0.09 0.08 0.09 0.06 0.10 0.11 0.09 0.10 0.05 0.01 0.02 0.04 0.01 0.01 0.04 0.01 0.09 0.39 0.63 0.74 0.60 0.16 0.14 0.07
0.00 0.00 0.00 0.00 0.01 0.01 0.01 0.00 0.00 0.00 0.00 0.00 0.03 0.26 0.84 0.35 0.34 0.41 0.31 0.70 0.24 0.16 0.25 0.15 0.10 0.03 0.00 0.00 0.00 0.00 0.01 0.01 0.01 0.01 0.02 0.05 0.13 0.36 0.62 0.75 0.61 0.29 0.08
0.00 0.00 0.00 0.00 0.00 0.02 0.01 0.00 0.00 0.00 0.00 0.00 0.01 0.06 0.18 0.30 0.24 0.35 0.50 0.33 0.19 0.26 0.18 0.12 0.06 0.07 0.05 0.00 0.00 0.00 0.00 0.00 0.00 0.00 0.02 0.05 0.06 0.13 0.25 0.62 0.77 0.65 0.10
0.00 0.00 0.00 0.00 0.00 0.01 0.01 0.00 0.00 0.00 0.00 0.00 0.00 0.00 0.11 0.23 0.21 0.31 0.20 0.16 0.10 0.22 0.78 0.13 0.13 0.10 0.03 0.02 0.00 0.00 0.00 0.00 0.00 0.00 0.00 0.03 0.03 0.07 0.13 0.40 0.36 0.43 0.20
0.00 0.00 0.00 0.00 0.00 0.01 0.01 0.01 0.00 0.00 0.00 0.00 0.00 0.00 0.01 0.09 0.15 0.15 0.19 0.10 0.08 0.11 0.22 0.14 0.10 0.24 0.01 0.00 0.00 0.00 0.00 0.00 0.00 0.00 0.00 0.02 0.03 0.04 0.10 0.42 0.45 0.32 0.48
0.00 0.00 0.00 0.00 0.00 0.00 0.02 0.02 0.00 0.00 0.00 0.00 0.00 0.00 0.00 0.03 0.06 0.07 0.13 0.07 0.15 0.22 0.18 0.12 0.12 0.27 0.02 0.00 0.00 0.00 0.00 0.00 0.00 0.00 0.00 0.00 0.01 0.04 0.07 0.21 0.54 0.39 0.27
0.00 0.00 0.00 0.00 0.00 0.00 0.02 0.02 0.00 0.00 0.00 0.00 0.00 0.00 0.00 0.00 0.02 0.08 0.26 0.19 0.23 0.16 0.17 0.13 0.12 0.07 0.00 0.00 0.00 0.00 0.00 0.00 0.00 0.00 0.00 0.00 0.00 0.01 0.03 0.09 0.24 0.48 0.36
0.00 0.00 0.00 0.00 0.00 0.00 0.00 0.01 0.00 0.01 0.03 0.01 0.01 0.00 0.03 0.07 0.11 0.27 0.27 0.25 0.14 0.18 0.13 0.10 0.08 0.04 0.00 0.00 0.00 0.00 0.00 0.00 0.00 0.00 0.00 0.00 0.00 0.00 0.00 0.02 0.07 0.14 0.17
0.00 0.00 0.00 0.00 0.00 0.00 0.07 0.11 0.07 0.04 0.00 0.00 0.00 0.03 0.07 0.04 0.12 0.14 0.20 0.31 0.12 0.10 0.11 0.14 0.07 0.00 0.00 0.00 0.00 0.00 0.00 0.00 0.00 0.00 0.00 0.00 0.00 0.00 0.00 0.01 0.03 0.05 0.11
0.00 0.00 0.00 0.00 0.01 0.02 0.07 0.03 0.03 0.01 0.00 0.00 0.00 0.01 0.02 0.02 0.11 0.13 0.19 0.34 0.15 0.12 0.14 0.09 0.04 0.00 0.00 0.00 0.00 0.00 0.00 0.00 0.00 0.00 0.00 0.00 0.00 0.00 0.00 0.00 0.01 0.05 0.16
0.00 0.00 0.00 0.00 0.00 0.00 0.01 0.01 0.01 0.01 0.00 0.00 0.00 0.01 0.01 0.02 0.05 0.14 0.31 0.19 0.10 0.13 0.13 0.08 0.07 0.04 0.00 0.00 0.00 0.00 0.01 0.02 0.00 0.00 0.00 0.00 0.00 0.00 0.00 0.00 0.00 0.00 0.04
0.00 0.00 0.00 0.00 0.00 0.01 0.02 0.02 0.07 0.08 0.03 0.01 0.00 0.03 0.01 0.02 0.02 0.14 0.24 0.13 0.19 0.11 0.23 0.15 0.04 0.02 0.01 0.00 0.00 0.00 0.01 0.03 0.01 0.00 0.00 0.00 0.00 0.00 0.00 0.00 0.00 0.00 0.00
0.00 0.00 0.00 0.00 0.00 0.01 0.03 0.01 0.05 0.02 0.01 0.00 0.00 0.00 0.01 0.01 0.01 0.03 0.08 0.10 0.07 0.04 0.15 0.17 0.02 0.01 0.00 0.00 0.00 0.00 0.00 0.01 0.01 0.01 0.00 0.00 0.00 0.00 0.00 0.00 0.00 0.00 0.00
0.00 0.00 0.00 0.00 0.00 0.01 0.02 0.01 0.04 0.01 0.00 0.00 0.00 0.00 0.01 0.03 0.00 0.00 0.02 0.12 0.03 0.04 0.06 0.11 0.03 0.00 0.00 0.00 0.00 0.00 0.00 0.00 0.00 0.00 0.00 0.00 0.00 0.00 0.00 0.00 0.00 0.00 0.00
0.00 0.00 0.00 0.00 0.00 0.00 0.01 0.01 0.04 0.03 0.00 0.00 0.00 0.00 0.00 0.00 0.00 0.00 0.02 0.04 0.04 0.01 0.03 0.07 0.03 0.00 0.00 0.00 0.00 0.00 0.00 0.00 0.00 0.00 0.00 0.00 0.00 0.00 0.00 0.00 0.00 0.00 0.00

GFSSE_prec_precacc_036.txt.gz
Total_Precipitation_Accumulation
0.61 0.54 1.09 0.97 0.60 0.55 0.37 0.11 0.10 0.11 0.05 0.01 0.00 0.00 0.00 0.00 0.01 0.02 0.04 0.10 0.11 0.13 0.06 0.02 0.02 0.03 0.09 0.11 0.07 0.04 0.03 0.04 0.04 0.01 0.01 0.01 0.04 0.06 0.05 0.11 0.29 0.06 0.09
0.59 0.27 0.77 0.78 0.58 0.35 0.17 0.09 0.11 0.10 0.06 0.01 0.01 0.02 0.01 0.01 0.01 0.01 0.03 0.06 0.06 0.13 0.07 0.01 0.00 0.02 0.06 0.07 0.08 0.09 0.05 0.11 0.20 0.08 0.26 0.26 0.25 0.22 0.15 0.27 0.42 0.05 0.10
0.24 0.08 0.33 0.58 0.56 0.31 0.13 0.10 0.06 0.04 0.03 0.01 0.01 0.04 0.02 0.04 0.03 0.07 0.08 0.05 0.04 0.03 0.04 0.03 0.01 0.02 0.02 0.05 0.13 0.14 0.13 0.16 0.23 0.20 0.29 0.25 0.10 0.22 0.22 0.35 0.19 0.21 0.25
0.01 0.02 0.07 0.66 0.41 0.19 0.09 0.07 0.03 0.03 0.00 0.00 0.01 0.04 0.04 0.05 0.06 0.01 0.01 0.02 0.01 0.01 0.02 0.07 0.06 0.04 0.07 0.09 0.13 0.14 0.22 0.20 0.22 0.27 0.27 0.07 0.06 0.18 0.16 0.15 0.18 0.31 0.23
0.01 0.01 0.08 0.24 0.23 0.14 0.08 0.04 0.02 0.02 0.00 0.00 0.01 0.01 0.04 0.02 0.03 0.02 0.02 0.04 0.05 0.02 0.02 0.00 0.02 0.07 0.10 0.11 0.26 0.31 0.43 0.41 0.27 0.34 0.15 0.11 0.11 0.04 0.10 0.19 0.19 0.13 0.16
0.02 0.02 0.06 0.07 0.05 0.06 0.03 0.02 0.02 0.03 0.01 0.00 0.00 0.02 0.02 0.01 0.01 0.02 0.07 0.08 0.07 0.02 0.00 0.00 0.00 0.01 0.11 0.16 0.26 0.41 0.55 0.59 0.66 0.46 0.17 0.07 0.25 0.05 0.07 0.16 0.20 0.08 0.08
0.03 0.01 0.01 0.11 0.08 0.05 0.03 0.01 0.02 0.02 0.01 0.00 0.00 0.00 0.00 0.01 0.02 0.06 0.06 0.05 0.06 0.02 0.05 0.02 0.01 0.02 0.07 0.24 0.24 0.30 0.42 0.86 1.80 1.79 0.89 0.29 0.09 0.08 0.06 0.16 0.08 0.05 0.14
0.02 0.00 0.01 0.05 0.05 0.06 0.05 0.00 0.01 0.00 0.00 0.01 0.01 0.00 0.00 0.00 0.01 0.02 0.01 0.01 0.02 0.01 0.06 0.01 0.01 0.04 0.08 0.11 0.20 0.21 0.21 0.42 0.88 1.02 0.95 0.41 0.12 0.14 0.14 0.08 0.07 0.05 0.07
0.01 0.00 0.00 0.00 0.01 0.06 0.06 0.00 0.00 0.00 0.00 0.01 0.00 0.00 0.00 0.00 0.01 0.00 0.00 0.00 0.01 0.03 0.06 0.01 0.02 0.03 0.06 0.12 0.18 0.18 0.15 0.31 0.58 1.07 1.25 0.55 0.29 0.15 0.08 0.02 0.04 0.04 0.05
0.00 0.01 0.00 0.00 0.00 0.01 0.01 0.00 0.00 0.01 0.00 0.00 0.00 0.01 0.04 0.07 0.04 0.03 0.03 0.05 0.03 0.01 0.02 0.03 0.04 0.06 0.06 0.09 0.13 0.15 0.20 0.22 0.48 1.10 1.05 0.23 0.49 0.42 0.06 0.04 0.10 0.09 0.02
0.01 0.01 0.00 0.00 0.05 0.05 0.00 0.01 0.00 0.00 0.00 0.00 0.01 0.06 0.31 0.34 0.35 0.38 0.17 0.08 0.06 0.06 0.02 0.04 0.04 0.05 0.07 0.09 0.11 0.12 0.15 0.17 0.18 0.12 0.11 0.13 0.45 0.64 0.36 0.08 0.08 0.05 0.05
0.00 0.00 0.00 0.00 0.00 0.00 0.00 0.00 0.00 0.00 0.00 0.00 0.01 0.19 0.80 0.32 0.21 0.26 0.16 0.09 0.08 0.09 0.06 0.10 0.11 0.10 0.11 0.05 0.01 0.03 0.06 0.05 0.09 0.04 0.02 0.10 0.39 0.63 0.74 0.60 0.16 0.15 0.08
0.00 0.00 0.00 0.00 0.01 0.01 0.01 0.00 0.00 0.00 0.00 0.00 0.03 0.26 0.84 0.35 0.34 0.41 0.31 0.70 0.24 0.16 0.25 0.15 0.10 0.03 0.00 0.00 0.00 0.00 0.01 0.02 0.05 0.01 0.03 0.06 0.14 0.36 0.62 0.75 0.61 0.29 0.08
0.00 0.00 0.00 0.00 0.00 0.02 0.01 0.00 0.00 0.00 0.00 0.00 0.01 0.06 0.18 0.30 0.24 0.35 0.50 0.34 0.19 0.26 0.18 0.13 0.06 0.07 0.05 0.00 0.00 0.00 0.00 0.00 0.00 0.00 0.02 0.06 0.08 0.14 0.25 0.62 0.77 0.65 0.10
0.00 0.00 0.00 0.00 0.00 0.01 0.01 0.00 0.00 0.00 0.00 0.00 0.00 0.00 0.11 0.23 0.21 0.31 0.21 0.16 0.11 0.23 0.78 0.13 0.13 0.10 0.03 0.02 0.00 0.00 0.00 0.00 0.00 0.00 0.00 0.03 0.04 0.07 0.13 0.40 0.36 0.43 0.20
0.00 0.00 0.00 0.00 0.00 0.01 0.01 0.01 0.00 0.00 0.00 0.00 0.00 0.00 0.01 0.09 0.15 0.16 0.20 0.10 0.09 0.11 0.22 0.14 0.11 0.24 0.01 0.00 0.00 0.00 0.00 0.00 0.00 0.00 0.00 0.02 0.03 0.04 0.11 0.42 0.45 0.32 0.48
0.00 0.00 0.00 0.00 0.00 0.00 0.02 0.02 0.00 0.00 0.00 0.00 0.00 0.00 0.00 0.03 0.07 0.09 0.14 0.07 0.17 0.24 0.18 0.14 0.12 0.27 0.02 0.00 0.00 0.00 0.00 0.00 0.00 0.00 0.00 0.00 0.01 0.04 0.07 0.22 0.55 0.39 0.27
0.00 0.00 0.00 0.00 0.00 0.00 0.02 0.02 0.00 0.00 0.00 0.00 0.00 0.00 0.00 0.00 0.02 0.08 0.27 0.19 0.24 0.20 0.19 0.17 0.13 0.08 0.00 0.00 0.00 0.00 0.00 0.00 0.00 0.00 0.00 0.00 0.00 0.01 0.03 0.10 0.25 0.49 0.38
0.00 0.00 0.00 0.00 0.00 0.00 0.00 0.01 0.00 0.01 0.03 0.01 0.01 0.00 0.03 0.07 0.11 0.27 0.28 0.25 0.15 0.19 0.14 0.11 0.10 0.05 0.00 0.00 0.00 0.00 0.00 0.00 0.00 0.00 0.00 0.00 0.00 0.00 0.00 0.04 0.09 0.20 0.24
0.00 0.00 0.00 0.00 0.00 0.00 0.07 0.11 0.07 0.04 0.00 0.00 0.00 0.03 0.07 0.04 0.12 0.14 0.20 0.33 0.13 0.11 0.12 0.14 0.08 0.00 0.00 0.00 0.00 0.00 0.00 0.00 0.00 0.00 0.00 0.00 0.00 0.00 0.00 0.01 0.03 0.06 0.12
0.00 0.00 0.00 0.00 0.01 0.02 0.07 0.03 0.03 0.01 0.00 0.00 0.00 0.01 0.02 0.02 0.11 0.13 0.20 0.38 0.16 0.13 0.16 0.11 0.04 0.00 0.00 0.00 0.00 0.00 0.00 0.00 0.00 0.00 0.00 0.00 0.00 0.00 0.00 0.00 0.01 0.05 0.16
0.00 0.00 0.00 0.00 0.00 0.00 0.01 0.01 0.01 0.01 0.00 0.00 0.00 0.01 0.01 0.02 0.05 0.14 0.31 0.20 0.10 0.13 0.16 0.08 0.07 0.04 0.00 0.00 0.00 0.00 0.01 0.02 0.00 0.00 0.00 0.00 0.00 0.00 0.00 0.00 0.00 0.00 0.04
0.00 0.00 0.00 0.00 0.00 0.01 0.02 0.02 0.07 0.08 0.03 0.01 0.00 0.03 0.01 0.02 0.02 0.14 0.24 0.13 0.19 0.11 0.23 0.15 0.04 0.02 0.01 0.00 0.00 0.00 0.01 0.03 0.01 0.00 0.00 0.00 0.00 0.00 0.00 0.00 0.00 0.00 0.00
0.00 0.00 0.00 0.00 0.00 0.01 0.03 0.01 0.05 0.02 0.01 0.00 0.00 0.00 0.01 0.01 0.01 0.03 0.08 0.10 0.07 0.05 0.15 0.17 0.02 0.01 0.00 0.00 0.00 0.00 0.00 0.01 0.01 0.01 0.00 0.00 0.00 0.00 0.00 0.00 0.00 0.00 0.00
0.00 0.00 0.00 0.00 0.00 0.01 0.02 0.01 0.04 0.01 0.00 0.00 0.00 0.00 0.01 0.03 0.00 0.00 0.02 0.12 0.03 0.04 0.06 0.11 0.03 0.00 0.00 0.00 0.00 0.00 0.00 0.00 0.00 0.00 0.00 0.00 0.00 0.00 0.00 0.00 0.00 0.00 0.00
0.00 0.00 0.00 0.00 0.00 0.00 0.01 0.01 0.04 0.03 0.00 0.00 0.00 0.00 0.00 0.00 0.00 0.00 0.02 0.04 0.04 0.01 0.03 0.07 0.03 0.00 0.00 0.00 0.00 0.00 0.00 0.00 0.00 0.00 0.00 0.00 0.00 0.00 0.00 0.00 0.00 0.00 0.00

GFSSE_prec_precacc_042.txt.gz
Total_Precipitation_Accumulation
0.63 0.76 1.21 1.04 0.61 0.55 0.38 0.11 0.11 0.11 0.06 0.01 0.01 0.01 0.01 0.01 0.01 0.03 0.05 0.10 0.11 0.13 0.07 0.03 0.02 0.03 0.09 0.11 0.07 0.04 0.03 0.05 0.05 0.01 0.02 0.03 0.06 0.08 0.05 0.12 0.29 0.06 0.10
0.59 0.36 0.84 0.84 0.59 0.36 0.18 0.10 0.12 0.11 0.07 0.01 0.01 0.02 0.02 0.01 0.05 0.03 0.03 0.06 0.06 0.13 0.08 0.02 0.01 0.02 0.06 0.07 0.08 0.10 0.05 0.11 0.21 0.10 0.29 0.28 0.31 0.32 0.17 0.27 0.42 0.06 0.12
0.24 0.12 0.35 0.62 0.57 0.32 0.13 0.11 0.07 0.05 0.04 0.01 0.02 0.05 0.04 0.08 0.08 0.07 0.08 0.05 0.04 0.04 0.05 0.04 0.03 0.02 0.02 0.06 0.15 0.16 0.14 0.18 0.25 0.20 0.30 0.25 0.12 0.38 0.28 0.37 0.23 0.27 0.29
0.01 0.05 0.07 0.67 0.42 0.20 0.11 0.08 0.04 0.04 0.02 0.01 0.03 0.05 0.06 0.17 0.12 0.03 0.02 0.03 0.03 0.08 0.15 0.24 0.17 0.05 0.08 0.13 0.21 0.33 0.31 0.20 0.22 0.27 0.27 0.07 0.12 0.31 0.17 0.16 0.22 0.35 0.24
0.01 0.02 0.08 0.25 0.25 0.15 0.09 0.04 0.03 0.03 0.00 0.01 0.02 0.03 0.09 0.09 0.06 0.02 0.02 0.04 0.06 0.03 0.03 0.02 0.03 0.07 0.14 0.25 0.32 0.42 0.57 0.43 0.27 0.34 0.15 0.11 0.16 0.04 0.11 0.20 0.21 0.14 0.18
0.03 0.02 0.06 0.07 0.06 0.06 0.03 0.02 0.03 0.04 0.02 0.02 0.03 0.06 0.09 0.05 0.01 0.02 0.07 0.08 0.07 0.02 0.00 0.00 0.00 0.01 0.12 0.23 0.36 0.55 0.67 0.65 0.67 0.46 0.17 0.07 0.25 0.05 0.08 0.17 0.21 0.09 0.09
0.03 0.01 0.02 0.13 0.09 0.05 0.03 0.01 0.02 0.03 0.04 0.02 0.02 0.03 0.02 0.01 0.02 0.06 0.06 0.05 0.07 0.02 0.05 0.02 0.01 0.02 0.08 0.32 0.33 0.42 0.55 0.88 1.80 1.79 0.89 0.29 0.10 0.11 0.07 0.17 0.09 0.06 0.15
0.02 0.00 0.01 0.07 0.05 0.08 0.06 0.01 0.02 0.01 0.01 0.03 0.05 0.03 0.01 0.00 0.01 0.02 0.01 0.01 0.02 0.01 0.06 0.01 0.02 0.06 0.09 0.17 0.25 0.34 0.39 0.43 0.88 1.02 0.95 0.41 0.12 0.14 0.15 0.08 0.08 0.07 0.09
0.01 0.00 0.01 0.01 0.02 0.07 0.07 0.02 0.01 0.01 0.02 0.01 0.01 0.01 0.00 0.00 0.01 0.00 0.01 0.00 0.01 0.03 0.06 0.01 0.02 0.04 0.08 0.14 0.24 0.22 0.31 0.33 0.59 1.07 1.25 0.55 0.30 0.16 0.09 0.03 0.06 0.06 0.08
0.00 0.01 0.00 0.00 0.00 0.01 0.01 0.01 0.00 0.01 0.00 0.00 0.00 0.01 0.04 0.08 0.07 0.05 0.05 0.06 0.03 0.01 0.02 0.05 0.07 0.08 0.08 0.16 0.20 0.17 0.26 0.26 0.48 1.10 1.05 0.24 0.53 0.45 0.08 0.06 0.13 0.11 0.04
0.01 0.01 0.00 0.00 0.05 0.05 0.00 0.01 0.00 0.00 0.00 0.00 0.01 0.06 0.31 0.35 0.37 0.39 0.18 0.09 0.06 0.06 0.02 0.05 0.05 0.08 0.09 0.11 0.18 0.23 0.17 0.18 0.20 0.12 0.11 0.14 0.52 0.66 0.37 0.10 0.09 0.06 0.06
0.00 0.00 0.00 0.00 0.00 0.00 0.00 0.00 0.00 0.00 0.00 0.00 0.01 0.19 0.80 0.32 0.21 0.26 0.18 0.13 0.09 0.10 0.08 0.10 0.12 0.12 0.12 0.05 0.02 0.09 0.07 0.05 0.09 0.04 0.03 0.12 0.43 0.63 0.74 0.60 0.17 0.15 0.09
0.00 0.00 0.00 0.00 0.01 0.01 0.01 0.00 0.00 0.00 0.00 0.00 0.03 0.26 0.84 0.35 0.34 0.41 0.31 0.74 0.25 0.16 0.25 0.16 0.12 0.03 0.00 0.00 0.00 0.00 0.01 0.02 0.05 0.01 0.03 0.07 0.15 0.36 0.63 0.77 0.63 0.30 0.09
0.00 0.00 0.00 0.00 0.00 0.02 0.01 0.00 0.00 0.00 0.00 0.00 0.01 0.06 0.18 0.30 0.24 0.35 0.50 0.34 0.19 0.26 0.19 0.14 0.07 0.08 0.06 0.00 0.00 0.00 0.00 0.00 0.00 0.00 0.02 0.07 0.14 0.16 0.25 0.62 0.78 0.66 0.11
0.00 0.00 0.00 0.00 0.00 0.01 0.01 0.00 0.00 0.00 0.00 0.00 0.00 0.00 0.11 0.23 0.22 0.32 0.21 0.17 0.11 0.24 0.80 0.16 0.13 0.10 0.03 0.02 0.00 0.00 0.00 0.00 0.00 0.00 0.00 0.05 0.10 0.21 0.16 0.40 0.36 0.43 0.20
0.00 0.00 0.00 0.00 0.00 0.01 0.01 0.01 0.00 0.00 0.00 0.00 0.00 0.00 0.01 0.11 0.25 0.27 0.24 0.10 0.10 0.14 0.25 0.15 0.11 0.24 0.01 0.00 0.00 0.00 0.00 0.00 0.00 0.00 0.00 0.04 0.07 0.12 0.21 0.44 0.45 0.32 0.48
0.00 0.00 0.00 0.00 0.00 0.00 0.02 0.02 0.00 0.00 0.00 0.00 0.00 0.00 0.00 0.03 0.12 0.14 0.19 0.12 0.19 0.24 0.18 0.15 0.12 0.27 0.02 0.00 0.00 0.00 0.00 0.00 0.00 0.00 0.00 0.02 0.04 0.07 0.18 0.41 0.61 0.40 0.29
0.00 0.00 0.00 0.00 0.00 0.00 0.02 0.02 0.00 0.00 0.00 0.00 0.00 0.00 0.00 0.00 0.04 0.14 0.31 0.21 0.25 0.21 0.20 0.18 0.14 0.08 0.00 0.00 0.00 0.00 0.00 0.00 0.00 0.00 0.00 0.00 0.00 0.01 0.07 0.21 0.43 0.55 0.46
0.00 0.00 0.00 0.00 0.00 0.00 0.00 0.01 0.00 0.01 0.03 0.01 0.01 0.00 0.03 0.07 0.11 0.29 0.36 0.32 0.15 0.21 0.17 0.13 0.12 0.05 0.00 0.00 0.00 0.00 0.00 0.00 0.00 0.00 0.00 0.00 0.00 0.00 0.00 0.08 0.15 0.28 0.32
0.00 0.00 0.00 0.00 0.00 0.00 0.07 0.11 0.07 0.04 0.00 0.00 0.00 0.03 0.07 0.04 0.12 0.15 0.30 0.44 0.18 0.15 0.17 0.18 0.09 0.00 0.00 0.00 0.00 0.00 0.00 0.00 0.00 0.00 0.00 0.00 0.00 0.00 0.00 0.01 0.05 0.08 0.14
0.00 0.00 0.00 0.00 0.01 0.02 0.07 0.03 0.03 0.01 0.00 0.00 0.00 0.01 0.02 0.02 0.11 0.13 0.22 0.42 0.20 0.17 0.17 0.12 0.04 0.00 0.00 0.00 0.00 0.00 0.00 0.00 0.00 0.00 0.00 0.00 0.00 0.00 0.00 0.00 0.01 0.05 0.16
0.00 0.00 0.00 0.00 0.00 0.00 0.01 0.01 0.01 0.01 0.00 0.00 0.00 0.01 0.01 0.02 0.05 0.14 0.31 0.21 0.15 0.15 0.17 0.08 0.07 0.04 0.00 0.00 0.00 0.00 0.01 0.02 0.00 0.00 0.00 0.00 0.00 0.00 0.00 0.00 0.00 0.00 0.04
0.00 0.00 0.00 0.00 0.00 0.01 0.02 0.02 0.07 0.08 0.03 0.01 0.00 0.03 0.01 0.02 0.02 0.14 0.24 0.14 0.20 0.14 0.24 0.15 0.04 0.02 0.01 0.00 0.00 0.00 0.01 0.03 0.01 0.00 0.00 0.00 0.00 0.00 0.00 0.00 0.00 0.00 0.00
0.00 0.00 0.00 0.00 0.00 0.01 0.03 0.01 0.05 0.02 0.01 0.00 0.00 0.00 0.01 0.01 0.01 0.03 0.08 0.10 0.07 0.06 0.16 0.17 0.02 0.01 0.00 0.00 0.00 0.00 0.00 0.01 0.01 0.01 0.00 0.00 0.00 0.00 0.00 0.00 0.00 0.00 0.00
0.00 0.00 0.00 0.00 0.00 0.01 0.02 0.01 0.04 0.01 0.00 0.00 0.00 0.00 0.01 0.03 0.00 0.00 0.02 0.12 0.03 0.05 0.10 0.11 0.03 0.00 0.00 0.00 0.00 0.00 0.00 0.00 0.00 0.00 0.00 0.00 0.00 0.00 0.00 0.00 0.00 0.00 0.00
0.00 0.00 0.00 0.00 0.00 0.00 0.01 0.01 0.04 0.03 0.00 0.00 0.00 0.00 0.00 0.00 0.00 0.00 0.02 0.04 0.04 0.01 0.03 0.07 0.03 0.00 0.00 0.00 0.00 0.00 0.00 0.00 0.00 0.00 0.00 0.00 0.00 0.00 0.00 0.00 0.00 0.00 0.00

GFSSE_prec_precacc_045.txt.gz
Total_Precipitation_Accumulation
0.63 0.80 1.25 1.05 0.61 0.56 0.39 0.11 0.11 0.11 0.06 0.01 0.01 0.01 0.01 0.01 0.02 0.04 0.05 0.10 0.11 0.13 0.07 0.03 0.02 0.03 0.09 0.11 0.07 0.04 0.03 0.05 0.08 0.04 0.06 0.04 0.07 0.09 0.06 0.12 0.29 0.07 0.10
0.59 0.38 0.87 0.86 0.60 0.36 0.19 0.10 0.12 0.11 0.07 0.01 0.01 0.02 0.02 0.03 0.08 0.05 0.04 0.07 0.08 0.15 0.10 0.03 0.01 0.02 0.06 0.07 0.08 0.10 0.05 0.11 0.22 0.10 0.31 0.29 0.31 0.33 0.18 0.28 0.43 0.06 0.12
0.24 0.13 0.36 0.66 0.59 0.32 0.14 0.12 0.07 0.05 0.04 0.03 0.05 0.10 0.06 0.09 0.10 0.12 0.09 0.06 0.05 0.07 0.08 0.05 0.03 0.02 0.03 0.08 0.16 0.16 0.15 0.19 0.25 0.21 0.30 0.25 0.13 0.39 0.31 0.39 0.24 0.28 0.29
0.01 0.05 0.08 0.70 0.44 0.21 0.13 0.08 0.05 0.04 0.06 0.09 0.08 0.06 0.07 0.20 0.14 0.06 0.05 0.07 0.07 0.08 0.15 0.24 0.18 0.05 0.08 0.15 0.27 0.39 0.32 0.21 0.22 0.27 0.27 0.07 0.13 0.35 0.19 0.19 0.22 0.36 0.24
0.02 0.03 0.09 0.26 0.26 0.16 0.09 0.05 0.04 0.03 0.01 0.02 0.04 0.08 0.11 0.15 0.13 0.09 0.09 0.06 0.06 0.04 0.04 0.03 0.03 0.07 0.14 0.30 0.42 0.44 0.59 0.43 0.27 0.34 0.16 0.16 0.18 0.08 0.14 0.21 0.22 0.14 0.19
0.03 0.02 0.07 0.09 0.06 0.06 0.04 0.04 0.03 0.04 0.02 0.06 0.05 0.06 0.10 0.10 0.05 0.03 0.07 0.08 0.07 0.03 0.00 0.00 0.00 0.01 0.12 0.25 0.41 0.57 0.68 0.65 0.67 0.46 0.17 0.11 0.31 0.13 0.11 0.17 0.22 0.10 0.11
0.03 0.01 0.02 0.16 0.10 0.06 0.04 0.02 0.03 0.04 0.06 0.05 0.02 0.03 0.03 0.02 0.03 0.06 0.07 0.06 0.07 0.03 0.05 0.02 0.01 0.03 0.13 0.36 0.38 0.48 0.57 0.88 1.80 1.79 0.90 0.31 0.13 0.16 0.10 0.19 0.10 0.07 0.16
0.02 0.01 0.02 0.07 0.06 0.10 0.06 0.02 0.02 0.03 0.02 0.03 0.05 0.03 0.02 0.01 0.01 0.02 0.01 0.01 0.02 0.01 0.06 0.03 0.06 0.09 0.11 0.27 0.32 0.38 0.39 0.43 0.88 1.02 0.98 0.45 0.14 0.15 0.19 0.10 0.09 0.10 0.10
0.01 0.01 0.02 0.01 0.04 0.09 0.10 0.03 0.01 0.02 0.02 0.02 0.01 0.02 0.00 0.00 0.01 0.00 0.01 0.00 0.01 0.03 0.06 0.02 0.03 0.06 0.12 0.19 0.30 0.23 0.31 0.33 0.59 1.07 1.25 0.55 0.30 0.16 0.11 0.03 0.08 0.06 0.09
0.01 0.02 0.00 0.01 0.01 0.02 0.04 0.03 0.02 0.03 0.03 0.01 0.01 0.01 0.04 0.08 0.08 0.05 0.05 0.07 0.03 0.01 0.02 0.05 0.07 0.09 0.10 0.17 0.24 0.18 0.26 0.26 0.48 1.10 1.05 0.24 0.55 0.46 0.08 0.07 0.14 0.12 0.04
0.02 0.01 0.00 0.01 0.05 0.05 0.01 0.03 0.06 0.03 0.00 0.00 0.01 0.06 0.31 0.35 0.37 0.40 0.23 0.10 0.06 0.07 0.05 0.08 0.05 0.08 0.09 0.11 0.18 0.25 0.19 0.18 0.20 0.12 0.11 0.14 0.52 0.66 0.37 0.10 0.10 0.06 0.06
0.00 0.01 0.00 0.00 0.00 0.00 0.00 0.01 0.01 0.00 0.00 0.00 0.01 0.19 0.80 0.32 0.21 0.26 0.22 0.16 0.11 0.14 0.13 0.14 0.15 0.12 0.12 0.05 0.02 0.09 0.07 0.05 0.09 0.04 0.03 0.12 0.43 0.63 0.75 0.60 0.17 0.15 0.10
0.00 0.00 0.00 0.00 0.01 0.01 0.01 0.00 0.00 0.00 0.00 0.00 0.03 0.26 0.84 0.35 0.34 0.41 0.31 0.75 0.25 0.16 0.25 0.16 0.12 0.03 0.00 0.00 0.00 0.00 0.01 0.02 0.05 0.01 0.03 0.07 0.15 0.36 0.63 0.77 0.63 0.30 0.09
0.00 0.00 0.00 0.00 0.00 0.02 0.01 0.00 0.00 0.00 0.00 0.00 0.01 0.06 0.18 0.30 0.24 0.35 0.50 0.34 0.19 0.26 0.19 0.14 0.07 0.08 0.06 0.00 0.00 0.00 0.00 0.00 0.00 0.00 0.02 0.07 0.15 0.16 0.26 0.62 0.79 0.66 0.11
0.00 0.00 0.00 0.00 0.00 0.01 0.01 0.00 0.00 0.00 0.00 0.00 0.00 0.00 0.11 0.23 0.22 0.32 0.22 0.17 0.11 0.24 0.81 0.16 0.13 0.10 0.03 0.02 0.00 0.00 0.00 0.00 0.00 0.00 0.00 0.06 0.11 0.23 0.16 0.40 0.37 0.43 0.20
0.00 0.00 0.00 0.00 0.00 0.01 0.01 0.01 0.00 0.00 0.00 0.00 0.00 0.00 0.01 0.12 0.25 0.30 0.30 0.14 0.11 0.14 0.25 0.15 0.11 0.24 0.01 0.00 0.00 0.00 0.00 0.00 0.00 0.00 0.00 0.05 0.09 0.14 0.21 0.44 0.45 0.32 0.48
0.00 0.00 0.00 0.00 0.00 0.00 0.02 0.02 0.00 0.00 0.00 0.00 0.00 0.00 0.00 0.04 0.13 0.14 0.23 0.19 0.21 0.24 0.18 0.15 0.12 0.27 0.02 0.00 0.00 0.00 0.00 0.00 0.00 0.00 0.00 0.02 0.04 0.08 0.20 0.43 0.61 0.40 0.29
0.00 0.00 0.00 0.00 0.00 0.00 0.02 0.02 0.00 0.00 0.00 0.00 0.00 0.00 0.00 0.01 0.05 0.14 0.31 0.22 0.25 0.21 0.21 0.18 0.14 0.08 0.00 0.00 0.00 0.00 0.00 0.00 0.00 0.00 0.00 0.00 0.00 0.01 0.07 0.23 0.48 0.60 0.51
0.00 0.00 0.00 0.00 0.00 0.00 0.00 0.01 0.00 0.01 0.03 0.01 0.01 0.00 0.03 0.07 0.12 0.31 0.37 0.33 0.16 0.22 0.17 0.13 0.12 0.05 0.00 0.00 0.00 0.00 0.00 0.00 0.00 0.00 0.00 0.00 0.00 0.00 0.00 0.08 0.17 0.29 0.35
0.00 0.00 0.00 0.00 0.00 0.00 0.07 0.11 0.07 0.04 0.00 0.00 0.00 0.03 0.07 0.04 0.12 0.16 0.31 0.44 0.19 0.18 0.18 0.20 0.09 0.00 0.00 0.00 0.00 0.00 0.00 0.00 0.00 0.00 0.00 0.00 0.00 0.00 0.00 0.01 0.05 0.09 0.14
0.00 0.00 0.00 0.00 0.01 0.02 0.07 0.03 0.03 0.01 0.00 0.00 0.00 0.01 0.02 0.02 0.11 0.14 0.22 0.44 0.22 0.18 0.17 0.13 0.04 0.00 0.00 0.00 0.00 0.00 0.00 0.00 0.00 0.00 0.00 0.00 0.00 0.00 0.00 0.00 0.01 0.05 0.16
0.00 0.00 0.00 0.00 0.00 0.00 0.01 0.01 0.01 0.01 0.00 0.00 0.00 0.01 0.01 0.02 0.05 0.14 0.31 0.24 0.17 0.17 0.20 0.09 0.07 0.04 0.00 0.00 0.00 0.00 0.01 0.02 0.00 0.00 0.00 0.00 0.00 0.00 0.00 0.00 0.00 0.00 0.04
0.00 0.00 0.00 0.00 0.00 0.01 0.02 0.02 0.07 0.08 0.03 0.01 0.00 0.03 0.01 0.02 0.02 0.14 0.25 0.14 0.21 0.19 0.31 0.18 0.04 0.02 0.01 0.00 0.00 0.00 0.01 0.03 0.01 0.00 0.00 0.00 0.00 0.00 0.00 0.00 0.00 0.00 0.00
0.00 0.00 0.00 0.00 0.00 0.01 0.03 0.01 0.05 0.02 0.01 0.00 0.00 0.00 0.01 0.01 0.01 0.03 0.09 0.13 0.15 0.09 0.23 0.18 0.02 0.01 0.00 0.00 0.00 0.00 0.00 0.01 0.01 0.01 0.00 0.00 0.00 0.00 0.00 0.00 0.00 0.00 0.00
0.00 0.00 0.00 0.00 0.00 0.01 0.02 0.01 0.04 0.01 0.00 0.00 0.00 0.00 0.01 0.03 0.00 0.00 0.02 0.15 0.10 0.09 0.15 0.12 0.05 0.00 0.00 0.00 0.00 0.00 0.00 0.00 0.00 0.00 0.00 0.00 0.00 0.00 0.00 0.00 0.00 0.00 0.00
0.00 0.00 0.00 0.00 0.00 0.00 0.01 0.01 0.04 0.03 0.00 0.00 0.00 0.00 0.00 0.00 0.00 0.00 0.02 0.04 0.05 0.01 0.04 0.07 0.06 0.02 0.00 0.00 0.00 0.00 0.00 0.00 0.00 0.00 0.00 0.00 0.00 0.00 0.00 0.00 0.00 0.00 0.00

GFSSE_prec_precacc_048.txt.gz
Total_Precipitation_Accumulation
0.63 0.80 1.32 1.08 0.61 0.56 0.39 0.11 0.11 0.12 0.07 0.02 0.01 0.01 0.01 0.01 0.02 0.04 0.05 0.10 0.11 0.13 0.07 0.03 0.02 0.03 0.09 0.11 0.07 0.04 0.03 0.07 0.13 0.08 0.08 0.07 0.10 0.12 0.07 0.14 0.31 0.07 0.15
0.59 0.38 0.91 0.87 0.62 0.36 0.19 0.10 0.12 0.11 0.07 0.01 0.01 0.02 0.03 0.06 0.10 0.05 0.04 0.07 0.10 0.18 0.10 0.03 0.01 0.02 0.06 0.07 0.08 0.10 0.05 0.12 0.24 0.14 0.36 0.31 0.35 0.37 0.18 0.29 0.48 0.08 0.16
0.24 0.13 0.36 0.67 0.60 0.34 0.15 0.12 0.08 0.06 0.04 0.03 0.05 0.11 0.08 0.09 0.10 0.15 0.10 0.08 0.08 0.09 0.09 0.05 0.04 0.03 0.07 0.08 0.16 0.18 0.19 0.24 0.29 0.30 0.41 0.33 0.16 0.44 0.34 0.41 0.29 0.34 0.30
0.01 0.05 0.08 0.71 0.45 0.22 0.13 0.09 0.08 0.05 0.06 0.11 0.13 0.11 0.08 0.20 0.17 0.13 0.06 0.07 0.09 0.11 0.16 0.24 0.18 0.08 0.10 0.18 0.28 0.39 0.34 0.22 0.25 0.34 0.33 0.09 0.14 0.40 0.21 0.24 0.24 0.37 0.25
0.02 0.03 0.09 0.27 0.26 0.16 0.10 0.05 0.06 0.04 0.03 0.06 0.09 0.09 0.12 0.16 0.14 0.11 0.10 0.06 0.06 0.05 0.05 0.03 0.03 0.08 0.17 0.33 0.43 0.45 0.59 0.43 0.28 0.35 0.19 0.27 0.24 0.13 0.18 0.23 0.23 0.15 0.19
0.03 0.02 0.07 0.09 0.07 0.07 0.09 0.05 0.05 0.07 0.05 0.07 0.06 0.07 0.15 0.12 0.11 0.04 0.08 0.08 0.07 0.04 0.00 0.00 0.00 0.02 0.12 0.26 0.43 0.59 0.69 0.65 0.68 0.48 0.18 0.16 0.40 0.17 0.14 0.18 0.22 0.10 0.11
0.03 0.01 0.02 0.18 0.11 0.08 0.07 0.02 0.05 0.06 0.07 0.06 0.04 0.07 0.08 0.06 0.06 0.07 0.07 0.06 0.07 0.03 0.05 0.03 0.01 0.04 0.14 0.39 0.40 0.50 0.58 0.88 1.80 1.80 0.91 0.45 0.17 0.23 0.10 0.19 0.10 0.07 0.16
0.02 0.01 0.02 0.09 0.07 0.12 0.07 0.04 0.04 0.03 0.02 0.04 0.08 0.06 0.04 0.02 0.02 0.02 0.01 0.01 0.02 0.01 0.06 0.03 0.10 0.11 0.12 0.30 0.36 0.38 0.39 0.43 0.88 1.03 1.04 0.54 0.15 0.16 0.20 0.11 0.10 0.10 0.10
0.01 0.01 0.02 0.01 0.05 0.12 0.11 0.04 0.02 0.02 0.02 0.05 0.06 0.05 0.01 0.01 0.01 0.00 0.01 0.00 0.01 0.03 0.06 0.03 0.05 0.06 0.13 0.21 0.34 0.26 0.31 0.33 0.59 1.07 1.25 0.56 0.31 0.19 0.13 0.06 0.10 0.07 0.09
0.01 0.02 0.01 0.01 0.02 0.04 0.05 0.04 0.02 0.04 0.05 0.06 0.01 0.01 0.05 0.08 0.08 0.05 0.05 0.07 0.03 0.01 0.03 0.05 0.07 0.09 0.11 0.21 0.28 0.20 0.26 0.26 0.48 1.10 1.05 0.24 0.56 0.48 0.09 0.10 0.15 0.12 0.05
0.02 0.01 0.00 0.03 0.06 0.13 0.02 0.05 0.07 0.05 0.02 0.01 0.01 0.07 0.32 0.35 0.37 0.40 0.23 0.11 0.07 0.08 0.07 0.09 0.05 0.08 0.09 0.12 0.19 0.26 0.19 0.18 0.20 0.12 0.11 0.14 0.56 0.70 0.40 0.12 0.11 0.06 0.06
0.00 0.01 0.00 0.00 0.01 0.07 0.02 0.04 0.05 0.02 0.00 0.00 0.01 0.19 0.80 0.32 0.21 0.26 0.23 0.19 0.13 0.14 0.13 0.17 0.16 0.12 0.13 0.05 0.02 0.10 0.07 0.05 0.09 0.04 0.03 0.12 0.43 0.65 0.77 0.61 0.17 0.16 0.11
0.00 0.00 0.00 0.00 0.01 0.02 0.03 0.01 0.01 0.00 0.00 0.00 0.03 0.26 0.84 0.35 0.34 0.41 0.31 0.75 0.25 0.16 0.25 0.16 0.12 0.03 0.00 0.00 0.00 0.00 0.01 0.02 0.05 0.01 0.03 0.07 0.16 0.37 0.64 0.77 0.63 0.30 0.10
0.00 0.00 0.00 0.00 0.00 0.02 0.01 0.00 0.00 0.00 0.00 0.00 0.01 0.06 0.18 0.30 0.24 0.35 0.50 0.34 0.19 0.26 0.19 0.14 0.07 0.08 0.06 0.00 0.00 0.00 0.00 0.00 0.00 0.00 0.02 0.07 0.15 0.16 0.26 0.62 0.79 0.66 0.11
0.00 0.00 0.00 0.00 0.00 0.01 0.01 0.00 0.00 0.00 0.00 0.00 0.00 0.00 0.11 0.23 0.22 0.33 0.24 0.18 0.11 0.24 0.81 0.16 0.13 0.10 0.03 0.02 0.00 0.00 0.00 0.00 0.00 0.00 0.01 0.06 0.11 0.23 0.16 0.40 0.38 0.44 0.20
0.00 0.00 0.00 0.00 0.00 0.01 0.01 0.01 0.00 0.00 0.00 0.00 0.00 0.00 0.01 0.12 0.31 0.35 0.35 0.18 0.13 0.14 0.25 0.15 0.11 0.24 0.01 0.00 0.00 0.00 0.00 0.00 0.00 0.00 0.00 0.05 0.09 0.14 0.22 0.44 0.45 0.32 0.48
0.00 0.00 0.00 0.00 0.00 0.00 0.02 0.02 0.00 0.00 0.00 0.00 0.00 0.00 0.00 0.05 0.21 0.24 0.30 0.25 0.23 0.24 0.18 0.15 0.12 0.27 0.02 0.00 0.00 0.00 0.00 0.00 0.00 0.00 0.00 0.02 0.04 0.09 0.21 0.44 0.62 0.40 0.29
0.00 0.00 0.00 0.00 0.00 0.00 0.02 0.02 0.00 0.00 0.00 0.00 0.00 0.00 0.00 0.01 0.11 0.20 0.37 0.27 0.27 0.21 0.21 0.18 0.14 0.08 0.00 0.00 0.00 0.00 0.00 0.00 0.00 0.00 0.00 0.00 0.00 0.01 0.08 0.23 0.48 0.62 0.51
0.00 0.00 0.00 0.00 0.00 0.00 0.00 0.01 0.00 0.01 0.03 0.01 0.01 0.00 0.03 0.07 0.12 0.31 0.38 0.39 0.22 0.26 0.19 0.13 0.12 0.05 0.00 0.00 0.00 0.00 0.00 0.00 0.00 0.00 0.00 0.00 0.00 0.00 0.00 0.09 0.17 0.29 0.35
0.00 0.00 0.00 0.00 0.00 0.00 0.07 0.11 0.07 0.04 0.00 0.00 0.00 0.03 0.07 0.04 0.12 0.16 0.34 0.56 0.27 0.22 0.24 0.20 0.09 0.00 0.00 0.00 0.00 0.00 0.00 0.00 0.00 0.00 0.00 0.00 0.00 0.00 0.00 0.01 0.05 0.09 0.14
0.00 0.00 0.00 0.00 0.01 0.02 0.07 0.03 0.03 0.01 0.00 0.00 0.00 0.01 0.02 0.02 0.11 0.15 0.26 0.51 0.26 0.21 0.21 0.15 0.04 0.00 0.00 0.00 0.00 0.00 0.00 0.00 0.00 0.00 0.00 0.00 0.00 0.00 0.00 0.00 0.01 0.05 0.16
0.00 0.00 0.00 0.00 0.00 0.00 0.01 0.01 0.01 0.01 0.00 0.00 0.00 0.01 0.01 0.02 0.05 0.15 0.36 0.28 0.21 0.24 0.26 0.16 0.10 0.04 0.00 0.00 0.00 0.00 0.01 0.02 0.00 0.00 0.00 0.00 0.00 0.00 0.00 0.00 0.00 0.00 0.04
0.00 0.00 0.00 0.00 0.00 0.01 0.02 0.02 0.07 0.08 0.03 0.01 0.00 0.03 0.01 0.02 0.02 0.14 0.28 0.19 0.30 0.26 0.33 0.20 0.05 0.02 0.01 0.00 0.00 0.00 0.01 0.03 0.01 0.00 0.00 0.00 0.00 0.00 0.00 0.00 0.00 0.00 0.00
0.00 0.00 0.00 0.00 0.00 0.01 0.03 0.01 0.05 0.02 0.01 0.00 0.00 0.00 0.01 0.01 0.01 0.03 0.15 0.21 0.20 0.19 0.28 0.21 0.02 0.01 0.00 0.00 0.00 0.00 0.00 0.01 0.01 0.01 0.00 0.00 0.00 0.00 0.00 0.00 0.00 0.00 0.00
0.00 0.00 0.00 0.00 0.00 0.01 0.02 0.01 0.04 0.01 0.00 0.00 0.00 0.00 0.01 0.03 0.00 0.00 0.07 0.21 0.12 0.12 0.16 0.18 0.10 0.00 0.00 0.00 0.00 0.00 0.00 0.00 0.00 0.00 0.00 0.00 0.00 0.00 0.00 0.00 0.00 0.00 0.00
0.00 0.00 0.00 0.00 0.00 0.00 0.01 0.01 0.04 0.03 0.00 0.00 0.00 0.00 0.00 0.00 0.00 0.00 0.02 0.05 0.07 0.04 0.06 0.12 0.13 0.04 0.00 0.00 0.00 0.00 0.00 0.00 0.00 0.00 0.00 0.00 0.00 0.00 0.00 0.00 0.00 0.00 0.00